STARLINK-32364, 61622

Orbit data source: Space-Track

STARLINK-32364, 61622 is a payload satellite owned by SpaceX/Seattle (US) in LEO that was launched on Wed, 23 Oct 2024 UTC via an FALCON 9 launch vehicle from the Air Force Eastern Test Range (AFETR). Payload-class satellites include a variety of spacecraft equipped with specific instruments for various scientific and technological missions. These include communications satellites like Starlink; space stations such as the ISS; scientific satellites like the Hubble; Earth observation satellites from companies like Planet Labs, Umbra, and HawkEye 360; GPS; miniature CubeSats for education and research; and military/defense satellites.

Loading next visibility...
Identifier
61622, 2024-191B
Orbit
LEO
Country
Flag of USUS
Related business
Manufacturer
SpaceX/Seattle
Mission
Operational Commercial Communications
Bus & Motor
STARLINK V2M, Unknown motor
Mass
730 kg wet, ~700 kg dry
Launch date (UTC)
2024-10-23 (1 year ago)
Launch vehicle
FALCON 9
Launch site
Air Force Eastern Test Range (AFETR)
Object type
Payload
Rocket body
Debris
Shape & HBR
Box + 2 Pan, 17.7 m
Radar Cross Section
33.884 m², Large (>1 m²)

Expand to show TLE details & history
Last TLE update: 15 hours ago

TLE from 15 hours ago
0 STARLINK-32364
1 61622U 24191B   26034.20348913  .00001259  00000-0  55277-4 0  9996
2 61622  43.0018 349.1405 0001228 264.7123  95.3589 15.27584399 72268
Epoch: 2026-02-03T04:53Z
TLE epoch observation values (Epoch: 2026-02-03T04:53:01.460Z)
Latitude
-0°
Longitude
142.49662°
Altitude
482.89 km
Speed
7.626 km/s
True Right ascension
23h 16m 33s
True Declination
0° 00' 00"
Sunlit
Object was in daylight at epoch
Visualization orbit readout
Latitude
Unknown
Longitude
Unknown
Altitude
Unknown
Speed
Unknown
Apparent Right ascension
Unknown
Apparent Declination
Unknown
Sunlit
N/A
Visualization observer readout
Local Sidereal Time
21:57:12
Azimuth
Unknown
Elevation
Unknown
Doppler factor
Unknown
Orbital elements
Apogee altitude
485.824 km
Perigee altitude
484.138 km
Semi-major axis
6,863.118 km
Eccentricity
0.00012
Inclination
43.0018°
RAAN
349.1405°
Arg. of periapsis
264.7123°
True anomaly
95.37291°
Mean anomaly
95.3589°
Eccentric anomaly
95.36591°
Mean motion
3.81734 °/min
Orbital period
94.31 mins
BSTAR
0.000055277
Loading maneuver chart data...
Computing Atmospheric mass density...
Loading historical data...
Loading historical data...
Loading historical data...
Loading historical data...
Loading historical data...
Loading historical data...
Loading historical data...

Documentation

Showing up to 5 results
|